Location: Unspecified
(0.0000°N, 0.0000°E)
Time: 15:27:45
(UTC+00:00)

N. Korean satellite - Pass Details

Date: 26 April 2018
Orbit: 459 x 511 km, 97.2° (Epoch: 17 July)

Event Time Altitude Azimuth Distance (km) Brightness Sun altitude
Rises 18:23:09 0° 177° (S) 2,620 10.1 -6.2°
Reaches altitude 10° 18:25:17 10° 181° (S) 1,729 9.2 -6.7°
Maximum altitude 18:28:56 54° 259° (W) 618 7.5 -7.6°
Drops below altitude 10° 18:32:32 10° 337° (NNW) 1,702 9.9 -8.4°
Sets 18:34:37 0° 342° (NNW) 2,575 10.7 -8.9°
